TIME,DELAY(SENSOR),PRES,OXYGEN,RAWTEMP,T(OPTODE),TCPHASE,FLUOR,BETA(BETA700),BETA(BETA412),BETA(BETA440),CDOM,C(CSC),ED(ED412.40),ED(ED444.00),ED(ED489.70),ED(ED554.30),LU(LU411.80),LU(LU443.40),LU(LU489.60),LU(LU554.10),COMP,TILTX,TILTY,CHECK
1370924060,5806,771.5399780273438000,43.8563995361328100,655.1774291992188000,4.7866129875183105,54.3641090393066400,52,100,88,78,79,14854,2147756544,2147426514,2148011254,2147876352,2147637659,2147057225,2148256045,2147197001,1518,4,13,45526
1370927656,5808,812.9199829101562000,44.3981895446777340,659.6983032226562000,4.6379032135009770,54.3381996154785160,53,107,86,79,78,14857,2147755026,2147428589,2148008832,2147873792,2147643410,2147056365,2148256832,2147197485,393,4,13,44361
1370931256,5806,821.7700195312500000,44.0182189941406250,659.9019165039062000,4.6312031745910645,54.4026107788085940,52,99,84,78,81,14855,2147754203,2147426194,2148008009,2147877494,2147640521,2147060041,2148255049,2147194742,476,4,13,53400
1370934856,5810,843.3200073242188000,46.5273399353027340,663.0748901367188000,4.5266900062561035,54.0759582519531250,53,98,86,78,79,14850,2147753865,2147425014,2148009216,2147874971,2147641398,2147053430,2148256018,2147195410,77,4,13,44996
1370938456,5808,847.7800292968750000,46.9277496337890600,663.4069213867188000,4.5157470703125000,54.0195198059082000,53,100,102,77,80,14852,2147750838,2147424064,2148012114,2147876461,2147639341,2147052013,2148255762,2147194770,3584,4,13,35248
1370942056,5808,852.6500244140625000,46.8261108398437500,663.3591918945312000,4.5173192024230960,54.0330696105957000,52,98,86,80,79,14852,2147753709,2147427867,2148011611,2147875684,2147640658,2147050614,2148255131,2147197403,230,4,13,43263
1370945656,5807,876.1900024414062000,48.1719017028808600,665.8853759765625000,4.4340209960937500,53.8735809326171900,53,98,89,80,79,14851,2147753152,2147425161,2148012507,2147873965,2147640045,2147055414,2148256621,2147195318,243,4,13,54080
1370949256,5812,873.5999755859375000,48.4412193298339840,666.4949951171875000,4.4139118194580080,53.8416404724121100,52,97,85,78,78,14852,2147756041,2147425472,2148011693,2147873874,2147639853,2147052224,2148253458,2147196086,30,4,13,4368
1370952856,5810,870.1300048828125000,48.4616088867187500,667.1632080078125000,4.3918609619140625,53.8491096496582000,51,98,84,79,78,14847,2147754377,2147426843,2148011538,2147875885,2147642523,2147048576,2148251008,2147200649,410,4,13,54323
1370956456,5809,893.4199829101562000,48.8128395080566400,669.3526000976562000,4.3195800781250000,53.8256492614746100,53,101,83,86,80,14852,2147755437,2147426294,2148011446,2147874148,2147644534,2147057115,2148258614,2147199360,25,4,13,4084
1370960056,5807,895.1500244140625000,49.3605690002441400,670.2863769531250000,4.2887339591979980,53.7644996643066400,53,98,87,77,79,14851,2147755218,2147428544,2148009718,2147874249,2147641426,2147051044,2148257645,2147193636,770,4,13,34335
1370963656,5811,901.5300292968750000,48.9390411376953100,670.4033813476562000,4.2848720550537110,53.8215293884277340,52,114,86,79,79,14851,2147755675,2147424713,2148010496,2147873746,2147645394,2147054345,2148258249,2147193353,34,4,13,56402
1370967256,5808,932.9099731445312000,48.7778205871582000,672.3444824218750000,4.2207179069519040,53.8666191101074200,52,97,83,78,80,14848,2147759113,2147428416,2148012352,2147875620,2147642093,2147051382,2148257664,2147196534,2858,4,13,27100
1370970856,5808,933.2299804687500000,48.6165199279785160,671.7061767578125000,4.2418189048767090,53.8869590759277340,53,100,84,80,79,14849,2147756763,2147426331,2148011574,2147872429,2147644955,2147051291,2148260525,2147196772,3279,4,13,55720
1370974456,5808,941.7999877929688000,48.5620002746582000,670.6848144531250000,4.2755742073059080,53.8786811828613300,52,99,84,78,80,14841,2147756242,2147424548,2148011245,2147876461,2147644489,2147050624,2148258587,2147200475,235,4,13,62237
1370978056,5812,958.1699829101562000,48.5514411926269500,672.7316284179688000,4.2079219818115230,53.9071693420410160,53,101,83,79,80,14844,2147759341,2147427492,2148013440,2147875017,2147640749,2147059227,2148257289,2147198646,2927,4,13,60779
1370981656,5809,961.1799926757812000,48.8849105834960940,673.0056762695312000,4.1988558769226070,53.8599891662597660,53,98,87,79,79,14849,2147754788,2147427044,2148012891,2147872594,2147641426,2147057728,2148255241,2147195812,273,4,13,36818
1370985256,5810,956.6099853515625000,48.9205894470214840,673.3447265625000000,4.1876468658447270,53.8646316528320300,52,98,86,80,80,14840,2147758473,2147429705,2148015177,2147877083,2147645238,2147049005,2148258569,2147200064,3236,4,13,42772
1370988856,5811,982.3800048828125000,49.5318298339843750,676.0114135742188000,4.0994148254394530,53.8106193542480500,53,100,85,79,80,14840,2147756836,2147427785,2148013805,2147873874,2147644077,2147049014,2148260562,2147197814,216,4,13,61387
1370992456,5807,982.2399902343750000,50.3797683715820300,677.1226806640625000,4.0626201629638670,53.7070312500000000,52,99,86,79,80,14840,2147759131,2147430125,2148012653,2147875126,2147641307,2147052918,2148260251,2147194624,158,4,13,30027
1370996056,5808,988.2399902343750000,50.7834701538085940,678.0328979492188000,4.0324730873107910,53.6645202636718750,52,98,85,79,80,14840,2147754889,2147427419,2148010971,2147874578,2147640841,2147043419,2148260516,2147196973,3083,4,13,44367
1370999656,5809,983.3099975585938000,51.2384414672851560,678.6536865234375000,4.0119061470031740,53.6080207824707000,52,99,86,79,80,14841,2147757796,2147425490,2148011090,2147874852,2147640411,2147051657,2148254848,2147196022,523,4,13,5510
1371003256,5811,982.4500122070312000,50.8352813720703100,678.9014282226562000,4.0036997795104980,53.6663703918457000,53,97,86,77,80,14842,2147756068,2147426688,2148012580,2147873014,2147640640,2147050084,2148261558,2147197494,12,4,13,45823
1371006856,5811,987.9899902343750000,50.7730407714843750,678.6030883789062000,4.0135841369628910,53.6728515625000000,52,97,85,80,80,14840,2147753984,2147425069,2148009718,2147876132,2147642477,2147051675,2148258432,2147199963,163,4,13,34009
1371010456,5807,988.2999877929688000,51.5207901000976560,678.4552001953125000,4.0184822082519530,53.5690803527832000,52,97,88,80,80,14838,2147757622,2147426267,2148011044,2147875739,2147642304,2147047314,2148268333,2147196480,195,4,13,20568
1371014056,5807,988.6400146484375000,51.1039886474609400,678.1793212890625000,4.0276222229003910,53.6203498840332000,51,97,85,78,81,14837,2147757412,2147422491,2148008722,2147874157,2147643702,2147053110,2148262025,2147197321,3564,4,13,43811
1371017656,5806,990.9899902343750000,50.7355995178222660,677.7628784179688000,4.0414137840271000,53.6699409484863300,53,100,85,78,80,14838,2147759314,2147425289,2148013019,2147875392,2147639497,2147049590,2148258523,2147197888,3377,4,13,33287
1371021256,5811,985.7999877929688000,50.5008583068847660,677.8953247070312000,4.0370311737060550,53.7020492553710940,52,98,90,79,79,14838,2147756269,2147423872,2148012672,2147872246,2147641865,2147061860,2148263488,2147193837,3227,4,13,7507
1371024856,5809,990.3499755859375000,50.6271209716796900,677.7606811523438000,4.0414891242980960,53.6824989318847660,53,98,86,78,79,14835,2147756992,2147426944,2148013504,2147875638,2147639725,2147052361,2148262555,2147198400,3493,4,13,14550
1371028456,5807,995.4099731445312000,50.8256797790527340,677.5175170898438000,4.0495429039001465,53.6536483764648440,53,102,84,78,81,14837,2147755876,2147425901,2148012178,2147871881,2147642816,2147054994,2148261942,2147196553,3497,4,13,52
1371032056,5805,992.7199707031250000,50.6449508666992200,677.4675903320312000,4.0511970520019530,53.6757392883300800,53,97,87,78,80,14834,2147757504,2147426532,2148014930,2147874971,2147638866,2147048868,2148260416,2147193700,124,4,13,16462
1371035656,5811,991.5399780273438000,50.5952796936035160,677.6795043945312000,4.0441799163818360,53.6842803955078100,53,96,85,80,80,14836,2147760704,2147425673,2148012909,2147872923,2147642752,2147051099,2148260571,2147195958,3533,4,13,49760
1371039256,5812,986.9099731445312000,51.9736404418945300,678.7346191406250000,4.0092258453369140,53.5136985778808600,52,98,88,79,79,14836,2147752978,2147428379,2148009782,2147878217,2147641600,2147049691,2148259017,2147196260,505,4,13,24300
1371042856,5809,985.2399902343750000,52.0914802551269500,679.5764770507812000,3.9813249111175537,53.5048294067382800,52,97,84,77,80,14832,2147756260,2147429238,2148010953,2147875611,2147641499,2147048877,2148261184,2147194614,3494,4,13,49690
1371046456,5810,992.3300170898438000,52.2523918151855500,678.5894775390625000,4.0140318870544430,53.4742813110351560,52,97,85,80,81,14835,2147758528,2147427145,2148012818,2147876132,2147640036,2147052626,2148258413,2147195136,771,4,13,61286
1371050056,5806,996.3300170898438000,50.5327415466308600,677.9484252929688000,4.0352749824523930,53.6961212158203100,52,97,82,78,80,14833,2147760164,2147426349,2148013970,2147878747,2147642779,2147057764,2148261458,2147195766,3447,4,13,10868
1371053656,5809,1002.4899902343750000,50.1878204345703100,676.2000732421875000,4.0931658744812010,53.7232284545898440,52,96,91,78,81,14833,2147756982,2147427446,2148010752,2147878802,2147644388,2147052626,2148257234,2147196022,3252,4,13,16109
1371057256,5809,996.3200073242188000,49.8788108825683600,676.8436279296875000,4.0718588829040530,53.7737693786621100,52,97,85,79,79,14835,2147754002,2147427913,2148015570,2147874441,2147640630,2147059328,2148263241,2147195565,501,4,13,8461
1371060856,5810,1003.7000122070312000,50.3832397460937500,676.2728881835938000,4.0907540321350100,53.6996917724609400,52,98,83,80,80,14831,2147754834,2147426852,2148013842,2147874889,2147641234,2147054674,2148257517,2147197138,507,4,13,47843
1371064456,5812,997.0499877929688000,49.7532081604003900,676.3817138671875000,4.0871539115905760,53.7831115722656250,52,100,87,78,79,14832,2147754998,2147428992,2148011840,2147873499,2147642596,2147057225,2148261266,2147199478,3467,4,13,4883
1371067856,5811,992.3800048828125000,49.6604118347168000,677.0878295898438000,4.0637741088867190,53.8084182739257800,53,98,87,79,81,14839,2147755794,2147427913,2148013193,2147875437,2147643968,2147057901,2148256612,2147199094,281,4,13,41047
